Time,TemperatureF,DewpointF,PressureIn,WindDirection,WindDirectionDegrees,WindSpeedMPH,WindSpeedGustMPH,Humidity,HourlyPrecipIn,Conditions,Clouds,dailyrainin,SolarRadiationWatts/m^2,SoftwareType,DateUTC
2013-06-12 07:22:00,74.4,72.9,30.06,NW,318,0.0,0.0,95,0.00,,,0.00,21,Wunderground v.1.15,2013-06-12 11:22:00,
2013-06-12 07:32:00,74.7,73.2,30.06,NW,318,0.0,0.0,95,0.00,,,0.00,25,Wunderground v.1.15,2013-06-12 11:32:00,
2013-06-12 07:37:00,74.9,73.4,30.06,ESE,114,0.0,0.0,95,0.00,,,0.00,26,Wunderground v.1.15,2013-06-12 11:37:00,
2013-06-12 07:42:00,75.1,73.6,30.06,ENE,65,0.0,0.0,95,0.00,,,0.00,26,Wunderground v.1.15,2013-06-12 11:42:00,
2013-06-12 07:47:00,75.4,73.9,30.06,ENE,65,0.0,0.0,95,0.00,,,0.00,28,Wunderground v.1.15,2013-06-12 11:47:00,
2013-06-12 07:57:00,75.6,74.1,30.07,ENE,61,0.0,0.0,95,0.00,,,0.00,33,Wunderground v.1.15,2013-06-12 11:57:00,
2013-06-12 08:02:00,75.6,74.7,30.07,ENE,61,0.0,0.0,97,0.00,,,0.00,33,Wunderground v.1.15,2013-06-12 12:02:00,
2013-06-12 08:07:00,75.4,74.2,30.07,ENE,61,0.0,0.0,96,0.00,,,0.00,33,Wunderground v.1.15,2013-06-12 12:07:00,
2013-06-12 08:12:00,75.3,74.1,30.07,ENE,61,0.0,0.0,96,0.00,,,0.00,39,Wunderground v.1.15,2013-06-12 12:12:00,
2013-06-12 08:17:00,75.4,73.9,30.07,ENE,61,0.0,0.0,95,0.00,,,0.00,48,Wunderground v.1.15,2013-06-12 12:17:00,
2013-06-12 08:27:00,75.8,74.3,30.07,NE,35,0.0,0.0,95,0.00,,,0.00,56,Wunderground v.1.15,2013-06-12 12:27:00,
2013-06-12 08:32:00,76.0,74.5,30.08,NE,35,0.0,0.0,95,0.00,,,0.00,49,Wunderground v.1.15,2013-06-12 12:32:00,
2013-06-12 08:42:00,76.5,75.0,30.08,NE,35,0.0,0.0,95,0.00,,,0.00,46,Wunderground v.1.15,2013-06-12 12:42:00,
2013-06-12 08:47:00,76.7,74.8,30.08,NE,35,0.0,0.0,94,0.00,,,0.00,48,Wunderground v.1.15,2013-06-12 12:47:00,
2013-06-12 08:52:00,76.8,74.9,30.08,NE,38,0.0,0.0,94,0.00,,,0.00,48,Wunderground v.1.15,2013-06-12 12:52:00,
2013-06-12 08:57:00,77.2,74.4,30.08,NE,38,0.0,0.0,91,0.00,,,0.00,51,Wunderground v.1.15,2013-06-12 12:57:00,
2013-06-12 09:02:00,77.4,74.2,30.08,NE,38,0.0,1.0,90,0.00,,,0.00,51,Wunderground v.1.15,2013-06-12 13:02:00,
2013-06-12 09:07:00,77.4,74.2,30.08,NE,38,1.0,1.0,90,0.00,,,0.00,51,Wunderground v.1.15,2013-06-12 13:07:00,
2013-06-12 09:12:00,-999.9,-99.9,30.08,North,32767,-999.0,0.0,255,-99.99,,,0.00,,Wunderground v.1.15,2013-06-12 13:12:00,
2013-06-12 09:22:00,-999.9,-99.9,30.08,North,32767,-999.0,0.0,255,-99.99,,,0.00,,Wunderground v.1.15,2013-06-12 13:22:00,
2013-06-12 09:27:00,81.8,-99.9,30.08,North,8,2.0,2.0,255,0.00,,,0.00,,Wunderground v.1.15,2013-06-12 13:27:00,
2013-06-12 09:32:00,82.6,73.5,30.08,NNW,344,0.0,0.0,74,0.00,,,0.00,561,Wunderground v.1.15,2013-06-12 13:32:00,
2013-06-12 09:37:00,83.2,72.8,30.07,NNE,17,1.0,1.0,71,0.00,,,0.00,616,Wunderground v.1.15,2013-06-12 13:37:00,
2013-06-12 09:42:00,83.4,72.6,30.07,East,93,1.0,1.0,70,0.00,,,0.00,649,Wunderground v.1.15,2013-06-12 13:42:00,
2013-06-12 09:47:00,83.8,74.6,30.07,ESE,110,1.0,1.0,74,0.00,,,0.00,669,Wunderground v.1.15,2013-06-12 13:47:00,
2013-06-12 09:57:00,84.0,73.6,30.08,ENE,66,2.0,3.0,71,0.00,,,0.00,677,Wunderground v.1.15,2013-06-12 13:57:00,
2013-06-12 10:02:00,84.1,73.7,30.08,ESE,123,2.0,2.0,71,0.00,,,0.00,679,Wunderground v.1.15,2013-06-12 14:02:00,
2013-06-12 10:12:00,84.5,73.6,30.08,NNW,344,1.0,1.0,70,0.00,,,0.00,711,Wunderground v.1.15,2013-06-12 14:12:00,
2013-06-12 10:17:00,84.5,73.6,30.08,NE,56,2.0,5.0,70,0.00,,,0.00,732,Wunderground v.1.15,2013-06-12 14:17:00,
2013-06-12 10:22:00,84.3,73.0,30.08,NNE,14,3.0,3.0,69,0.00,,,0.00,748,Wunderground v.1.15,2013-06-12 14:22:00,
2013-06-12 10:27:00,84.9,74.0,30.08,ESE,114,2.0,4.0,70,0.00,,,0.00,765,Wunderground v.1.15,2013-06-12 14:27:00,
2013-06-12 10:32:00,85.1,74.2,30.08,ENE,58,3.0,3.0,70,0.00,,,0.00,774,Wunderground v.1.15,2013-06-12 14:32:00,
2013-06-12 10:37:00,84.9,73.6,30.08,ENE,71,3.0,3.0,69,0.00,,,0.00,797,Wunderground v.1.15,2013-06-12 14:37:00,
2013-06-12 10:42:00,85.5,74.2,30.08,ENE,72,2.0,2.0,69,0.00,,,0.00,813,Wunderground v.1.15,2013-06-12 14:42:00,
2013-06-12 10:47:00,85.7,74.4,30.08,ENE,71,1.0,2.0,69,0.00,,,0.00,834,Wunderground v.1.15,2013-06-12 14:47:00,
2013-06-12 10:57:00,86.3,74.5,30.08,North,0,2.0,3.0,68,0.00,,,0.00,862,Wunderground v.1.15,2013-06-12 14:57:00,
2013-06-12 11:07:00,86.5,74.7,30.08,NNE,21,2.0,5.0,68,0.00,,,0.00,867,Wunderground v.1.15,2013-06-12 15:07:00,
2013-06-12 11:12:00,86.7,74.4,30.08,North,0,2.0,2.0,67,0.00,,,0.00,894,Wunderground v.1.15,2013-06-12 15:12:00,
2013-06-12 11:17:00,86.7,74.0,30.08,NNW,342,2.0,2.0,66,0.00,,,0.00,887,Wunderground v.1.15,2013-06-12 15:17:00,
2013-06-12 11:22:00,87.4,75.5,30.08,North,0,1.0,2.0,68,0.00,,,0.00,903,Wunderground v.1.15,2013-06-12 15:22:00,
2013-06-12 11:32:00,86.7,74.0,30.08,North,1,1.0,1.0,66,0.00,,,0.00,931,Wunderground v.1.15,2013-06-12 15:32:00,
2013-06-12 11:37:00,87.0,73.3,30.07,North,1,1.0,1.0,64,0.00,,,0.00,924,Wunderground v.1.15,2013-06-12 15:37:00,
2013-06-12 11:42:00,87.6,74.4,30.07,North,1,0.0,0.0,65,0.00,,,0.00,927,Wunderground v.1.15,2013-06-12 15:42:00,
2013-06-12 11:47:00,88.0,73.8,30.07,NNE,32,0.0,1.0,63,0.00,,,0.00,959,Wunderground v.1.15,2013-06-12 15:47:00,
2013-06-12 11:52:00,87.6,73.4,30.07,NE,37,1.0,2.0,63,0.00,,,0.00,962,Wunderground v.1.15,2013-06-12 15:52:00,
2013-06-12 12:02:00,88.2,74.0,30.07,North,356,2.0,4.0,63,0.00,,,0.00,1017,Wunderground v.1.15,2013-06-12 16:02:00,
2013-06-12 12:07:00,88.6,73.9,30.07,NW,305,3.0,4.0,62,0.00,,,0.00,1049,Wunderground v.1.15,2013-06-12 16:07:00,
2013-06-12 12:12:00,89.9,74.6,30.07,NW,326,3.0,3.0,61,0.00,,,0.00,1079,Wunderground v.1.15,2013-06-12 16:12:00,
2013-06-12 12:17:00,89.9,73.1,30.07,NW,326,2.0,3.0,58,0.00,,,0.00,1100,Wunderground v.1.15,2013-06-12 16:17:00,
2013-06-12 12:22:00,90.3,75.0,30.07,WNW,299,1.0,1.0,61,0.00,,,0.00,1082,Wunderground v.1.15,2013-06-12 16:22:00,
2013-06-12 12:32:00,88.8,76.0,30.06,NW,312,3.0,3.0,66,0.00,,,0.00,208,Wunderground v.1.15,2013-06-12 16:32:00,
2013-06-12 12:37:00,88.0,75.7,30.06,WSW,256,2.0,3.0,67,0.00,,,0.00,199,Wunderground v.1.15,2013-06-12 16:37:00,
2013-06-12 12:47:00,87.4,76.4,30.06,NNW,333,3.0,3.0,70,0.00,,,0.00,107,Wunderground v.1.15,2013-06-12 16:47:00,
2013-06-12 12:57:00,86.7,76.6,30.06,North,353,4.0,6.0,72,0.00,,,0.00,76,Wunderground v.1.15,2013-06-12 16:57:00,
2013-06-12 13:02:00,86.5,76.8,30.06,North,11,4.0,4.0,73,0.00,,,0.00,67,Wunderground v.1.15,2013-06-12 17:02:00,
2013-06-12 13:07:00,86.5,77.2,30.06,North,357,4.0,6.0,74,0.00,,,0.00,56,Wunderground v.1.15,2013-06-12 17:07:00,
2013-06-12 13:17:00,85.3,76.9,30.07,WNW,291,6.0,6.0,76,3.16,,,0.20,84,Wunderground v.1.15,2013-06-12 17:17:00,
2013-06-12 13:27:00,82.8,76.4,30.07,WNW,296,2.0,5.0,81,0.14,,,0.31,201,Wunderground v.1.15,2013-06-12 17:27:00,
2013-06-12 13:37:00,83.0,79.8,30.06,West,274,2.0,3.0,90,0.04,,,0.31,248,Wunderground v.1.15,2013-06-12 17:37:00,
2013-06-12 13:47:00,82.8,78.5,30.07,WNW,302,3.0,3.0,87,0.00,,,0.31,422,Wunderground v.1.15,2013-06-12 17:47:00,
2013-06-12 13:52:00,84.1,79.8,30.06,NW,313,3.0,3.0,87,0.00,,,0.31,1063,Wunderground v.1.15,2013-06-12 17:52:00,
2013-06-12 13:57:00,84.9,79.5,30.06,WSW,248,3.0,3.0,84,0.00,,,0.31,1096,Wunderground v.1.15,2013-06-12 17:57:00,
2013-06-12 14:02:00,85.7,79.2,30.05,West,281,4.0,5.0,81,0.00,,,0.31,1098,Wunderground v.1.15,2013-06-12 18:02:00,
2013-06-12 14:12:00,85.9,78.2,30.06,NW,319,4.0,4.0,78,0.00,,,0.31,860,Wunderground v.1.15,2013-06-12 18:12:00,
2013-06-12 14:17:00,85.9,77.5,30.05,NW,304,4.0,4.0,76,0.00,,,0.31,130,Wunderground v.1.15,2013-06-12 18:17:00,
2013-06-12 14:27:00,86.3,77.8,30.04,WNW,292,3.0,6.0,76,0.00,,,0.31,970,Wunderground v.1.15,2013-06-12 18:27:00,
2013-06-12 14:37:00,88.2,76.3,30.04,NW,304,5.0,5.0,68,0.00,,,0.31,959,Wunderground v.1.15,2013-06-12 18:37:00,
2013-06-12 14:42:00,88.6,76.7,30.04,NNW,336,4.0,9.0,68,0.00,,,0.31,999,Wunderground v.1.15,2013-06-12 18:42:00,
2013-06-12 14:47:00,88.8,76.4,30.04,West,274,5.0,9.0,67,0.00,,,0.31,1035,Wunderground v.1.15,2013-06-12 18:47:00,
2013-06-12 14:57:00,87.8,75.5,30.04,NNW,332,5.0,10.0,67,0.00,,,0.31,199,Wunderground v.1.15,2013-06-12 18:57:00,
2013-06-12 15:02:00,87.0,75.2,30.04,WNW,292,5.0,5.0,68,0.00,,,0.31,194,Wunderground v.1.15,2013-06-12 19:02:00,
2013-06-12 15:07:00,86.3,74.9,30.04,NNW,330,4.0,6.0,69,0.00,,,0.31,216,Wunderground v.1.15,2013-06-12 19:07:00,
2013-06-12 15:12:00,86.1,74.3,30.03,NW,315,4.0,4.0,68,0.00,,,0.31,264,Wunderground v.1.15,2013-06-12 19:12:00,
2013-06-12 15:17:00,86.5,75.1,30.03,West,265,4.0,4.0,69,0.00,,,0.31,299,Wunderground v.1.15,2013-06-12 19:17:00,
2013-06-12 15:27:00,89.0,75.7,30.03,North,350,4.0,6.0,65,0.00,,,0.31,757,Wunderground v.1.15,2013-06-12 19:27:00,
2013-06-12 15:37:00,89.7,74.9,30.03,SW,236,5.0,6.0,62,0.00,,,0.31,882,Wunderground v.1.15,2013-06-12 19:37:00,
2013-06-12 15:42:00,89.7,75.9,30.03,West,267,6.0,6.0,64,0.00,,,0.31,862,Wunderground v.1.15,2013-06-12 19:42:00,
2013-06-12 15:47:00,90.1,75.3,30.03,North,352,6.0,6.0,62,0.00,,,0.31,845,Wunderground v.1.15,2013-06-12 19:47:00,
2013-06-12 15:52:00,90.3,75.5,30.03,WNW,296,6.0,6.0,62,0.00,,,0.31,825,Wunderground v.1.15,2013-06-12 19:52:00,
2013-06-12 16:02:00,90.7,75.4,30.03,WNW,294,5.0,5.0,61,0.00,,,0.31,801,Wunderground v.1.15,2013-06-12 20:02:00,
2013-06-12 16:12:00,90.7,75.9,30.03,NW,315,4.0,4.0,62,0.00,,,0.31,778,Wunderground v.1.15,2013-06-12 20:12:00,
2013-06-12 16:22:00,90.5,74.7,30.03,NW,311,6.0,6.0,60,0.00,,,0.31,744,Wunderground v.1.15,2013-06-12 20:22:00,
2013-06-12 16:27:00,90.5,75.7,30.03,WSW,250,6.0,7.0,62,0.00,,,0.31,728,Wunderground v.1.15,2013-06-12 20:27:00,
2013-06-12 16:32:00,90.3,75.0,30.03,North,0,5.0,5.0,61,0.00,,,0.31,720,Wunderground v.1.15,2013-06-12 20:32:00,
2013-06-12 16:42:00,90.1,74.8,30.03,NNW,330,5.0,7.0,61,0.00,,,0.31,688,Wunderground v.1.15,2013-06-12 20:42:00,
2013-06-12 16:47:00,89.9,74.6,30.02,NNW,332,6.0,7.0,61,0.00,,,0.31,677,Wunderground v.1.15,2013-06-12 20:47:00,
2013-06-12 16:52:00,89.9,74.6,30.02,NW,313,6.0,6.0,61,0.00,,,0.31,655,Wunderground v.1.15,2013-06-12 20:52:00,
2013-06-12 17:02:00,89.9,74.2,30.03,NW,315,6.0,6.0,60,0.00,,,0.31,625,Wunderground v.1.15,2013-06-12 21:02:00,
2013-06-12 17:07:00,89.9,73.7,30.03,NW,323,7.0,7.0,59,0.00,,,0.31,604,Wunderground v.1.15,2013-06-12 21:07:00,
2013-06-12 17:17:00,89.7,74.0,30.02,NNW,328,6.0,6.0,60,0.00,,,0.31,552,Wunderground v.1.15,2013-06-12 21:17:00,
2013-06-12 17:22:00,89.5,73.8,30.02,WNW,298,6.0,7.0,60,0.00,,,0.31,554,Wunderground v.1.15,2013-06-12 21:22:00,
2013-06-12 17:32:00,89.3,74.6,30.02,NNW,339,6.0,6.0,62,0.00,,,0.31,528,Wunderground v.1.15,2013-06-12 21:32:00,
2013-06-12 17:42:00,88.8,74.1,30.01,NW,315,7.0,8.0,62,0.00,,,0.31,500,Wunderground v.1.15,2013-06-12 21:42:00,
2013-06-12 17:52:00,88.6,73.4,30.01,West,278,6.0,6.0,61,0.00,,,0.31,465,Wunderground v.1.15,2013-06-12 21:52:00,
2013-06-12 17:57:00,88.6,73.9,30.02,North,357,6.0,6.0,62,0.00,,,0.31,447,Wunderground v.1.15,2013-06-12 21:57:00,
2013-06-12 18:07:00,88.4,75.1,30.02,North,0,4.0,5.0,65,0.00,,,0.31,410,Wunderground v.1.15,2013-06-12 22:07:00,
2013-06-12 18:12:00,88.2,74.0,30.02,NNW,347,5.0,10.0,63,0.00,,,0.31,401,Wunderground v.1.15,2013-06-12 22:12:00,
2013-06-12 18:22:00,88.0,74.3,30.02,NNW,337,5.0,6.0,64,0.00,,,0.31,384,Wunderground v.1.15,2013-06-12 22:22:00,
2013-06-12 18:27:00,87.8,74.1,30.02,NW,325,5.0,6.0,64,0.00,,,0.31,368,Wunderground v.1.15,2013-06-12 22:27:00,
2013-06-12 18:32:00,87.6,73.9,30.02,NW,320,4.0,4.0,64,0.00,,,0.31,327,Wunderground v.1.15,2013-06-12 22:32:00,
2013-06-12 18:37:00,87.8,74.1,30.02,NW,322,3.0,4.0,64,0.00,,,0.31,296,Wunderground v.1.15,2013-06-12 22:37:00,
2013-06-12 18:42:00,87.6,73.4,30.02,WNW,284,3.0,7.0,63,0.00,,,0.31,271,Wunderground v.1.15,2013-06-12 22:42:00,
2013-06-12 18:52:00,87.4,73.3,30.03,NNW,329,4.0,4.0,63,0.00,,,0.31,74,Wunderground v.1.15,2013-06-12 22:52:00,
2013-06-12 19:02:00,87.4,73.7,30.02,NW,318,3.0,5.0,64,0.00,,,0.31,76,Wunderground v.1.15,2013-06-12 23:02:00,
2013-06-12 19:07:00,87.2,73.5,30.02,West,278,3.0,5.0,64,0.00,,,0.31,83,Wunderground v.1.15,2013-06-12 23:07:00,
2013-06-12 19:12:00,87.0,73.3,30.02,NW,316,4.0,4.0,64,0.00,,,0.31,84,Wunderground v.1.15,2013-06-12 23:12:00,
2013-06-12 19:17:00,86.7,72.6,30.02,WNW,289,5.0,5.0,63,0.00,,,0.31,77,Wunderground v.1.15,2013-06-12 23:17:00,
2013-06-12 19:27:00,86.3,72.7,30.01,NNW,335,4.0,7.0,64,0.00,,,0.31,60,Wunderground v.1.15,2013-06-12 23:27:00,
2013-06-12 19:37:00,85.9,72.8,30.02,NNW,343,5.0,5.0,65,0.00,,,0.31,46,Wunderground v.1.15,2013-06-12 23:37:00,
2013-06-12 19:42:00,85.9,72.8,30.02,NW,320,3.0,3.0,65,0.00,,,0.31,40,Wunderground v.1.15,2013-06-12 23:42:00,
2013-06-12 19:47:00,85.7,73.0,30.02,West,278,2.0,3.0,66,0.00,,,0.31,32,Wunderground v.1.15,2013-06-12 23:47:00,
2013-06-12 19:52:00,85.7,73.0,30.03,West,278,1.0,1.0,66,0.00,,,0.31,28,Wunderground v.1.15,2013-06-12 23:52:00,
2013-06-12 19:57:00,85.5,73.3,30.03,NW,319,0.0,2.0,67,0.00,,,0.31,26,Wunderground v.1.15,2013-06-12 23:57:00,
2013-06-12 20:02:00,85.3,73.5,30.03,NW,311,1.0,1.0,68,0.00,,,0.31,25,Wunderground v.1.15,2013-06-13 00:02:00,
2013-06-12 20:12:00,85.1,73.3,30.02,NW,325,1.0,1.0,68,0.00,,,0.31,18,Wunderground v.1.15,2013-06-13 00:12:00,
2013-06-12 20:17:00,84.9,73.6,30.02,NW,320,2.0,4.0,69,0.00,,,0.31,14,Wunderground v.1.15,2013-06-13 00:17:00,
2013-06-12 20:22:00,84.7,73.8,30.01,NW,323,3.0,6.0,70,0.00,,,0.31,11,Wunderground v.1.15,2013-06-13 00:22:00,
2013-06-12 20:32:00,84.3,74.3,30.01,NNW,346,3.0,3.0,72,0.00,,,0.31,5,Wunderground v.1.15,2013-06-13 00:32:00,
2013-06-12 20:37:00,84.1,74.1,30.01,NW,319,2.0,3.0,72,0.00,,,0.31,0,Wunderground v.1.15,2013-06-13 00:37:00,
2013-06-12 20:47:00,83.8,74.2,30.01,NNW,330,4.0,6.0,73,0.00,,,0.31,0,Wunderground v.1.15,2013-06-13 00:47:00,
2013-06-12 20:52:00,83.4,74.2,30.01,NNW,330,3.0,3.0,74,0.00,,,0.31,0,Wunderground v.1.15,2013-06-13 00:52:00,
2013-06-12 20:57:00,83.2,74.4,30.01,NW,320,2.0,3.0,75,0.00,,,0.31,0,Wunderground v.1.15,2013-06-13 00:57:00,
2013-06-12 21:02:00,83.0,74.3,30.00,NW,325,3.0,3.0,75,0.00,,,0.31,0,Wunderground v.1.15,2013-06-13 01:02:00,
2013-06-12 21:12:00,82.8,74.8,30.00,NW,319,4.0,4.0,77,0.00,,,0.31,0,Wunderground v.1.15,2013-06-13 01:12:00,
2013-06-12 21:17:00,82.6,74.7,30.00,NW,319,4.0,7.0,77,0.00,,,0.31,0,Wunderground v.1.15,2013-06-13 01:17:00,
2013-06-12 21:22:00,82.6,74.7,30.01,NW,319,7.0,7.0,77,0.00,,,0.31,0,Wunderground v.1.15,2013-06-13 01:22:00,
2013-06-12 21:27:00,-999.9,-99.9,30.01,North,32767,-999.0,7.0,255,-99.99,,,0.31,,Wunderground v.1.15,2013-06-13 01:27:00,
2013-06-12 21:32:00,-999.9,-99.9,30.00,North,32767,-999.0,0.0,255,-99.99,,,0.31,,Wunderground v.1.15,2013-06-13 01:32:00,
2013-06-12 21:37:00,-999.9,-99.9,30.00,North,32767,-999.0,0.0,255,-99.99,,,0.31,,Wunderground v.1.15,2013-06-13 01:37:00,
2013-06-12 21:42:00,-999.9,-99.9,30.01,North,32767,-999.0,0.0,255,-99.99,,,0.31,,Wunderground v.1.15,2013-06-13 01:42:00,
2013-06-12 21:52:00,-999.9,-99.9,30.01,North,32767,-999.0,0.0,255,-99.99,,,0.31,,Wunderground v.1.15,2013-06-13 01:52:00,
2013-06-12 21:57:00,-999.9,-99.9,30.02,North,32767,-999.0,0.0,255,-99.99,,,0.31,,Wunderground v.1.15,2013-06-13 01:57:00,
2013-06-12 22:02:00,-999.9,-99.9,30.02,North,32767,-999.0,0.0,255,-99.99,,,0.31,,Wunderground v.1.15,2013-06-13 02:02:00,
2013-06-12 22:07:00,-999.9,-99.9,30.02,North,32767,-999.0,0.0,255,-99.99,,,0.31,,Wunderground v.1.15,2013-06-13 02:07:00,
2013-06-12 22:17:00,-999.9,-99.9,30.03,North,32767,-999.0,0.0,255,-99.99,,,0.31,,Wunderground v.1.15,2013-06-13 02:17:00,
2013-06-12 22:22:00,-999.9,-99.9,30.02,North,32767,-999.0,0.0,255,-99.99,,,0.31,,Wunderground v.1.15,2013-06-13 02:22:00,
2013-06-12 22:32:00,-999.9,-99.9,30.02,North,32767,-999.0,0.0,255,-99.99,,,0.31,,Wunderground v.1.15,2013-06-13 02:32:00,
2013-06-12 22:37:00,-999.9,-99.9,30.03,North,32767,-999.0,0.0,255,-99.99,,,0.31,,Wunderground v.1.15,2013-06-13 02:37:00,
2013-06-12 22:42:00,-999.9,-99.9,30.03,North,32767,-999.0,0.0,255,-99.99,,,0.31,,Wunderground v.1.15,2013-06-13 02:42:00,
2013-06-12 22:52:00,-999.9,-99.9,30.03,North,32767,-999.0,0.0,255,-99.99,,,0.31,,Wunderground v.1.15,2013-06-13 02:52:00,
2013-06-12 22:57:00,-999.9,-99.9,30.03,North,32767,-999.0,0.0,255,-99.99,,,0.31,,Wunderground v.1.15,2013-06-13 02:57:00,
2013-06-12 23:02:00,-999.9,-99.9,30.04,North,32767,-999.0,0.0,255,-99.99,,,0.31,,Wunderground v.1.15,2013-06-13 03:02:00,
2013-06-12 23:12:00,-999.9,-99.9,30.04,North,32767,-999.0,0.0,255,-99.99,,,0.31,,Wunderground v.1.15,2013-06-13 03:12:00,
2013-06-12 23:17:00,-999.9,-99.9,30.04,North,32767,-999.0,0.0,255,-99.99,,,0.31,,Wunderground v.1.15,2013-06-13 03:17:00,
2013-06-12 23:27:00,-999.9,-99.9,30.04,North,32767,-999.0,0.0,255,-99.99,,,0.31,,Wunderground v.1.15,2013-06-13 03:27:00,
2013-06-12 23:32:00,-999.9,-99.9,30.04,North,32767,-999.0,0.0,255,-99.99,,,0.31,,Wunderground v.1.15,2013-06-13 03:32:00,
2013-06-12 23:37:00,-999.9,-99.9,30.04,North,32767,-999.0,0.0,255,-99.99,,,0.31,,Wunderground v.1.15,2013-06-13 03:37:00,
2013-06-12 23:42:00,-999.9,-99.9,30.04,North,32767,-999.0,0.0,255,-99.99,,,0.31,,Wunderground v.1.15,2013-06-13 03:42:00,
2013-06-12 23:52:00,-999.9,-99.9,30.04,North,32767,-999.0,0.0,255,-99.99,,,0.31,,Wunderground v.1.15,2013-06-13 03:52:00,
2013-06-12 23:57:00,-999.9,-99.9,30.04,North,32767,-999.0,0.0,255,-99.99,,,0.31,,Wunderground v.1.15,2013-06-13 03:57:00,